Location: Obersdorf
(47.4079°N, 10.2781°E)
Time: 19:09:20
(UTC+02:00)

Nauka - Pass Details

Date: 28 September 2021
Orbit: 417 x 423 km, 51.6° (Epoch: 26 October)

Event Time Altitude Azimuth Distance (km) Brightness Sun altitude
Rises 21:00:59 0° 293° (WNW) 2,367 ? -20.3°
Reaches altitude 10° 21:03:06 10° 297° (WNW) 1,503 ? -20.6°
Enters shadow 21:06:11 61° 348° (NNW) 483 ? -21.1°
